Regional Weather Roundup
Issued by NWS

Home | Current Version | Previous Version | Graphics & Text | Print | Product List | Glossary On
Versions: 1 2 3 4 5 6 7 8 9 10 11 12 13 14 15 16 17 18 19 20 21 22 23 24 25 26 27 28 29 30 31 32 33 34 35 36 37 38 39 40 41 42 43 44 45 46 47 48 49 50
000
ASUS45 KBOI 240610
RWRID

IDAHO REGIONAL WEATHER ROUNDUP
NATIONAL WEATHER SERVICE BOISE ID
1200 AM MDT WED MAY 24 2017

NOTE: "FAIR" INDICATES FEW OR NO CLOUDS BELOW 12000 FEET
WITH NO SIGNIFICANT WEATHER AND/OR OBSTRUCTIONS TO VISIBILITY

IDZ012-014-240700-
SOUTHWEST IDAHO


CITY           SKY/WX    TMP DP  RH WIND       PRES   REMARKS
BOISE          CLEAR     69  43  38 SE12      29.80F
CALDWELL       CLEAR     67  46  47 E8        29.77F
MOUNTAIN HOME  CLEAR     61  43  50 S9        29.84F
$$

IDZ016-017-240700-
SOUTHCENTRAL IDAHO


CITY           SKY/WX    TMP DP  RH WIND       PRES   REMARKS
BURLEY         CLEAR     58  45  62 SW12      29.93F
JEROME         CLEAR     61  43  51 E8        29.92F
TWIN FALLS     CLEAR     61  39  44 S12       29.93F
$$

IDZ019>023-240700-
SOUTHEAST IDAHO


CITY           SKY/WX    TMP DP  RH WIND       PRES   REMARKS
IDAHO FALLS    CLEAR     64  38  38 S14       29.95F
POCATELLO      CLEAR     57  41  55 S9        29.95F
REXBURG        CLEAR     63  33  32 S14       29.93F
$$

IDZ006-010-011-018-031-032-240700-
CENTRAL IDAHO MOUNTAINS


CITY           SKY/WX    TMP DP  RH WIND       PRES   REMARKS
MCCALL         CLEAR     55  41  59 N3        29.92F
HAILEY         CLEAR     55  41  58 NW9       30.00F
STANLEY          N/A     49  38  65 CALM      30.05F
SALMON         CLEAR     61  39  44 CALM      29.82F
CHALLIS        CLEAR     60  37  42 S5        29.93F
$$

IDZ002-004-006-007-026-240700-
NORTHERN IDAHO


CITY           SKY/WX    TMP DP  RH WIND       PRES   REMARKS
LEWISTON       CLEAR     77  45  32 W15G25    29.70R
LOWELL           N/A     61  54  77 CALM      29.71F
COEUR D`ALENE  PTCLDY    69  44  40 SW17G24   29.64F
MULLAN PASS    CLEAR     55  38  52 SW13G26   29.78F
$$



USA.gov is the U.S. government's official web portal to all federal, state and local government web resources and services.